Location: Home
(42.5358°N, 72.7383°W)
Time: 17:50:59
(UTC-05:00)

A-11 Canister half - Pass Details

Date: 04 December 2021
Orbit: 1516 x 1684 km, 47.2° (Epoch: 18 January)

Event Time Altitude Azimuth Distance (km) Brightness Sun altitude
Rises 04:03:55 0° 178° (S) 4,703 11.6 -32.5°
Reaches altitude 10° 04:08:27 10° 159° (SSE) 3,753 11.3 -31.7°
Maximum altitude 04:13:50 17° 123° (ESE) 3,293 11.3 -30.7°
Drops below altitude 10° 04:19:17 10° 88° (E) 3,841 12.0 -29.7°
Sets 04:23:58 0° 70° (ENE) 4,864 12.6 -28.8°
